165  
ASUS44 KJAN 260310  
RWRMS  
 
MISSISSIPPI HOURLY WEATHER ROUNDUP  
NATIONAL WEATHER SERVICE JACKSON MS  
1000 PM CDT FRI MAY 25 2018  
 
NOTE: "FAIR: INDICATES FEW OR NO CLOUDS BELOW 12,000 FEET WITH NO  
SIGNIFICANT WEATHER AND/OR S TO VISIBILITY
.  
 
MSZ001>002-007>008-010>013-018>021-025>028-034>036-260400-  
NORTHWEST MISSISSIPPI  
 
CITY SKY/WX TMP DP RH WIND PRES REMARKS
 
BATESVILLE N/A N/A N/A N/A MISG N/A  
CLARKSDALE CLEAR 75 75 100 S5 29.91R  
CLEVELAND FAIR 72 72 100 SE5 29.90R  
GREENWOOD FAIR 74 72 93 S6 29.92R  
GREENVILLE FAIR 69 66 90 S6 29.90R  
TUNICA N/A 72 70 94 CALM 29.91R  
WINONA FAIR 71 71 100 CALM 29.94R  

 
 
MSZ003>006-009-014>017-022>024-029>033-037>039-260400-  
NORTHEAST MISSISSIPPI  
 
CITY SKY/WX TMP DP RH WIND PRES REMARKS
 
ABERDEEN N/A 73 73 100 CALM 29.94S  
COLUMBUS AFB FAIR 71 71 100 SE6 29.92F  
CORINTH LGT RAIN 70 68 94 CALM 29.94R  
GOLDN TRIANGLE FAIR 71 69 93 S7 29.94S  
STARKVILLE FAIR 70 68 94 S3 29.95S  
TUPELO FAIR 77 68 73 SE8 29.94R  

 
 
MSZ040-058-260400-  
CENTRAL MISSISSIPPI  
 
CITY SKY/WX TMP DP RH WIND PRES REMARKS
 
JACKSON INTL FAIR 71 70 96 S8 29.94R  
JACKSON HAWKNS FAIR 71 70 96 S8 N/A  
MADISON FAIR 70 70 100 S5 29.94R  
MERIDIAN KEY FAIR 72 68 87 CALM 29.94F  
MERIDIAN NAS FAIR 71 70 96 CALM 29.95S  
RAYMOND FAIR 72 72 100 CALM 29.94R  
VICKSBURG VKS MOCLDY 73 70 88 SE3 N/A  

 
 
MSZ059>079-260400-  
SOUTH MISSISSIPPI  
 
CITY SKY/WX TMP DP RH WIND PRES REMARKS
 
COLUMBIA FAIR 70 68 94 CALM 29.99S  
HATTIESBURG FAIR 72 71 97 S3 29.96R  
LAUREL FAIR 70 70 100 CALM 29.96R  
MCCOMB FAIR 70 67 90 CALM 29.96R  
NATCHEZ FAIR 73 70 90 S5 29.95R  
PINE BELT FAIR 69 68 96 CALM 29.97R  

 
 
MSZ080>082-260400-  
COASTAL MISSISSIPPI  
 
CITY SKY/WX TMP DP RH WIND PRES REMARKS
 
BILOXI MOCLDY 77 72 86 SW3 29.94R  
PASCAGOULA FAIR 75 72 90 CALM 29.95R  
GULFPORT FAIR 78 72 81 SE5 29.94R  

 
 
LAZ007>009-015>016-023>026-260400-  
NORTHEAST LOUISIANA  
 
CITY SKY/WX TMP DP RH WIND PRES REMARKS
 
BASTROP FAIR 70 70 99 SE3 29.92F  
TALLULAH/VBURG FAIR 73 71 93 CALM 29.93F  
VIDALIA FAIR 74 69 85 CALM 29.93R  

 
 
 
CLICK HERE TO GO TO PREVIOUS BULLETINS.

The Nexlab MS Page Main Text Page